N9OJR Weather Reports


time (UTC)temp
F
wind
direction
speed
knots
gust
knots
rain 1hr
in
rain 24hr
in
rain mn
in
humidity
%
barometer
mb
20260510104230 45 292 0.0 0.9 0.00 0.00 0.00 99 1009.0
20260510103725 45 282 0.0 0.0 0.00 0.00 0.00 99 1009.3
20260510103224 45 284 0.0 0.0 0.00 0.00 0.00 99 1009.1
20260510102722 45 287 0.0 0.9 0.00 0.00 0.00 99 1008.8
20260510102218 45 273 0.0 0.0 0.00 0.00 0.00 99 1008.9
20260510101716 44 285 0.0 0.9 0.00 0.00 0.00 99 1008.7
20260510101214 44 282 0.0 0.9 0.00 0.00 0.00 99 1008.8
20260510100705 44 288 0.0 0.9 0.00 0.00 0.00 99 1008.4
20260510100203 44 285 0.0 0.0 0.00 0.00 0.00 99 1008.7
20260510095658 44 284 0.0 0.9 0.00 0.00 0.00 99 1008.5
20260510095153 44 283 0.0 0.0 0.00 0.00 0.00 99 1008.6
20260510094652 44 285 0.0 0.0 0.00 0.00 0.00 99 1008.8
20260510094148 45 285 0.0 0.0 0.00 0.00 0.00 99 1008.6
20260510093644 45 285 0.0 0.0 0.00 0.00 0.00 99 1008.5
20260510093142 45 285 0.0 0.0 0.00 0.00 0.00 99 1008.5
20260510092638 45 285 0.0 0.0 0.00 0.00 0.00 99 1008.2
20260510092133 45 285 0.0 0.0 0.00 0.00 0.00 99 1008.2
20260510091630 46 285 0.0 0.0 0.00 0.00 0.00 99 1008.0
20260510091126 46 284 0.0 0.0 0.00 0.00 0.00 99 1007.9
20260510090622 46 284 0.0 1.7 0.00 0.00 0.00 99 1007.7
20260510090119 46 286 0.0 0.0 0.00 0.00 0.00 99 1007.7
20260510085613 46 288 0.0 0.0 0.00 0.00 0.00 99 1007.9
20260510085109 47 282 0.9 0.9 0.00 0.00 0.00 99 1007.7
20260510084606 47 292 0.9 1.7 0.00 0.00 0.00 99 1007.6
20260510084102 47 291 0.0 0.0 0.00 0.00 0.00 99 1007.7
20260510083559 48 288 0.0 0.9 0.00 0.00 0.00 99 1007.2
20260510083055 48 307 0.0 0.9 0.00 0.00 0.00 99 1007.2
20260510082552 49 308 0.0 2.6 0.00 0.00 0.00 99 1007.0
20260510082048 50 327 1.7 2.6 0.00 0.00 0.00 99 1006.8
20260510081543 50 43 0.9 0.9 0.00 0.00 0.00 99 1007.0
20260510081033 51 296 0.0 0.9 0.00 0.00 0.00 99 1006.9
20260510080533 51 292 0.9 1.7 0.00 0.00 0.00 99 1006.9
20260510080030 51 8 0.9 2.6 0.00 0.00 0.00 99 1007.1
20260510075527 52 299 0.0 0.0 0.00 0.00 0.00 99 1006.8
20260510075024 52 278 0.0 0.0 0.00 0.00 0.00 99 1006.8
20260510074522 52 269 0.0 0.9 0.00 0.00 0.00 99 1006.6
20260510074022 51 263 0.0 5.2 0.00 0.00 0.00 99 1006.4
20260510073518 51 294 0.0 0.0 0.00 0.00 0.00 99 1006.3
20260510073015 51 298 0.0 0.9 0.00 0.00 0.00 99 1006.6
20260510072512 51 307 0.9 1.7 0.00 0.00 0.00 99 1006.3
20260510072007 52 291 0.0 1.7 0.00 0.00 0.00 99 1006.3
20260510071504 52 310 0.9 1.7 0.00 0.00 0.00 99 1006.5
20260510071002 51 301 0.9 1.7 0.00 0.00 0.00 99 1006.4
20260510070459 51 287 0.0 0.9 0.00 0.00 0.00 99 1006.0
20260510065954 51 288 0.0 0.9 0.00 0.00 0.00 99 1006.1
20260510065452 52 283 0.0 0.9 0.00 0.00 0.00 99 1005.9
20260510064947 52 289 0.0 1.7 0.00 0.00 0.00 99 1005.9
20260510064445 52 288 0.9 0.9 0.00 0.00 0.00 99 1006.0
20260510063942 51 294 0.9 0.9 0.00 0.00 0.00 99 1005.9
20260510063437 51 284 0.0 0.0 0.00 0.00 0.00 99 1005.9
20260510062936 51 281 0.0 0.0 0.00 0.00 0.00 99 1005.7
20260510062436 51 284 0.0 0.0 0.00 0.00 0.00 99 1005.8
20260510061932 51 283 0.0 0.0 0.00 0.00 0.00 99 1006.1
20260510061429 51 281 0.0 0.0 0.00 0.00 0.00 99 1005.8
20260510060925 51 281 0.0 0.0 0.00 0.00 0.00 99 1005.8
20260510060422 51 283 0.0 0.0 0.00 0.00 0.00 99 1005.7
20260510055918 51 272 0.0 0.0 0.00 0.00 0.00 99 1005.6
20260510055414 52 270 0.0 0.0 0.00 0.00 0.00 99 1005.6
20260510054913 52 287 0.0 0.9 0.00 0.00 0.00 99 1005.5
20260510054408 52 273 0.0 0.0 0.00 0.00 0.00 99 1005.3
20260510053903 52 283 0.0 0.0 0.00 0.00 0.00 99 1005.0
20260510053359 53 281 0.0 0.0 0.00 0.00 0.00 99 1005.1
20260510052855 53 269 0.0 0.9 0.00 0.00 0.00 99 1005.3
20260510052351 53 270 0.0 0.9 0.00 0.00 0.00 99 1005.1
20260510051847 53 268 0.0 1.7 0.00 0.00 0.00 99 1005.3
20260510051344 53 293 0.0 1.7 0.00 0.00 0.00 99 1005.2
20260510050841 53 230 0.0 0.9 0.00 0.00 0.00 99 1005.5
20260510050337 53 249 0.0 0.9 0.00 0.00 0.00 99 1005.4
20260510045835 53 300 2.6 2.6 0.00 0.00 0.00 99 1005.6
20260510045331 54 103 0.9 1.7 0.00 0.00 0.00 99 1005.6
20260510044829 53 18 0.9 1.7 0.00 0.00 0.00 99 1005.5
20260510044325 53 13 0.9 1.7 0.00 0.00 0.00 99 1005.3
20260510043822 53 280 0.9 0.9 0.00 0.00 0.00 99 1004.9
20260510043318 53 231 0.0 0.9 0.00 0.00 0.00 99 1005.0
20260510042816 53 267 0.0 0.0 0.00 0.00 0.00 99 1004.9
20260510042311 53 260 0.0 0.9 0.00 0.00 0.00 99 1005.0
20260510041808 53 273 0.0 0.0 0.00 0.00 0.00 99 1004.9
20260510041305 53 275 0.0 0.9 0.00 0.00 0.00 99 1005.0
20260510040803 53 296 0.9 0.9 0.00 0.00 0.00 99 1004.8
20260510040259 53 255 0.0 0.0 0.00 0.00 0.00 99 1004.8
20260510035754 53 270 0.0 0.9 0.00 0.70 0.70 99 1004.9
20260510035250 53 262 0.0 0.0 0.00 0.70 0.70 99 1004.8
20260510034741 54 257 0.9 1.7 0.00 0.70 0.70 99 1004.9
20260510034239 54 270 0.0 0.9 0.00 0.70 0.70 99 1005.0
20260510033735 54 172 1.7 1.7 0.00 0.70 0.70 99 1004.9
20260510033233 54 253 0.0 0.9 0.00 0.70 0.70 99 1004.8
20260510032728 54 271 0.0 0.0 0.00 0.70 0.70 99 1004.9
20260510032225 54 274 0.0 0.0 0.00 0.70 0.70 99 1005.0
20260510031720 55 273 0.0 1.7 0.00 0.70 0.70 99 1005.0
20260510031216 55 281 0.0 0.9 0.00 0.70 0.70 99 1005.3
20260510030715 55 251 0.9 0.9 0.00 0.70 0.70 99 1005.1
20260510030213 55 271 0.0 0.0 0.00 0.70 0.70 99 1005.1
20260510025710 55 251 0.0 0.0 0.00 0.70 0.70 99 1005.0
20260510025208 55 206 0.0 0.9 0.00 0.70 0.70 99 1004.8
20260510024704 55 256 0.0 0.9 0.00 0.70 0.70 99 1004.8
20260510024201 55 286 0.0 0.9 0.19 0.70 0.70 99 1004.8
20260510023656 55 277 0.0 1.7 0.54 0.70 0.70 99 1004.9
20260510023154 55 272 0.9 1.7 0.50 0.66 0.66 99 1005.3
20260510022649 55 117 0.9 2.6 0.31 0.60 0.60 99 1006.0
20260510022144 55 241 0.0 1.7 0.12 0.57 0.57 99 1005.2
20260510021640 54 284 0.0 0.9 0.00 0.55 0.55 99 1004.8
20260510021138 54 249 0.9 0.9 0.00 0.55 0.55 99 1004.1
20260510020638 54 251 0.0 0.9 0.00 0.55 0.55 99 1003.9
20260510020133 54 276 0.0 0.9 0.00 0.55 0.55 99 1004.3
20260510015629 54 276 0.0 0.9 0.00 0.55 0.55 99 1004.5
20260510015126 54 281 0.9 1.7 0.00 0.55 0.55 99 1004.3
20260510014621 54 278 0.0 0.9 0.00 0.55 0.55 99 1004.5
20260510014119 54 216 0.9 1.7 0.00 0.55 0.55 99 1004.3
20260510013619 54 291 0.0 1.7 0.00 0.55 0.55 99 1003.9
20260510013115 54 314 0.0 0.9 0.00 0.55 0.55 99 1004.2
20260510012614 54 251 0.0 1.7 0.00 0.55 0.55 99 1004.0
20260510012111 54 254 0.0 0.9 0.00 0.55 0.55 99 1003.6
20260510011610 54 278 0.0 0.0 0.00 0.55 0.55 99 1003.7
20260510011106 54 274 0.0 0.0 0.00 0.55 0.55 99 1003.5
20260510010603 55 283 0.0 0.0 0.00 0.55 0.55 99 1003.6
20260510010100 55 283 0.0 0.9 0.00 0.55 0.55 99 1003.3
20260510005555 55 272 0.0 0.9 0.00 0.55 0.55 99 1003.8
20260510005054 55 262 0.0 4.3 0.00 0.55 0.55 99 1003.7
20260510004551 55 318 0.9 4.3 0.07 0.55 0.55 99 1003.2
20260510004049 55 279 0.0 1.7 0.07 0.55 0.55 99 1003.2
20260510003545 55 344 0.0 2.6 0.00 0.54 0.54 99 1004.2
20260510003041 55 351 1.7 2.6 0.00 0.54 0.54 99 1004.0
20260510002536 55 262 0.9 4.3 0.05 0.54 0.54 99 1003.9
20260510002034 55 274 0.0 1.7 0.12 0.54 0.54 99 1003.9
20260510001531 55 295 0.9 1.7 0.19 0.53 0.53 98 1003.7
20260510001029 55 313 0.0 6.1 0.42 0.52 0.52 98 1003.7
20260510000524 55 217 2.6 8.7 0.78 0.50 0.50 96 1003.7
20260510000021 56 332 2.6 12.2 0.66 0.45 0.45 93 1003.8
20260509235518 59 273 2.6 8.7 0.14 0.36 0.36 88 1003.8
20260509235015 62 215 5.2 9.6 0.00 0.34 0.34 78 1003.2
20260509234511 66 285 1.7 4.3 0.00 0.34 0.34 71 1003.1
20260509234009 66 164 0.9 1.7 0.00 0.34 0.34 68 1002.2
20260509233501 66 267 1.7 1.7 0.00 0.34 0.34 67 1001.9
20260509232957 67 198 1.7 5.2 0.00 0.34 0.34 64 1001.7
20260509232455 67 264 0.9 1.7 0.00 0.34 0.34 63 1001.7
20260509231950 67 344 2.6 4.3 0.00 0.34 0.34 63 1001.7
20260509231447 67 79 1.7 4.3 0.00 0.34 0.34 63 1001.6
20260509230945 67 71 1.7 5.2 0.00 0.34 0.34 62 1001.5
20260509230442 68 77 2.6 4.3 0.00 0.34 0.34 62 1001.5
20260509225938 68 52 0.9 2.6 0.00 0.34 0.34 62 1001.4
20260509225435 69 169 0.9 7.0 0.00 0.34 0.34 61 1001.2
20260509224931 69 208 1.7 7.0 0.00 0.34 0.34 60 1001.5
20260509224426 69 292 2.6 7.0 0.00 0.34 0.34 61 1001.6
20260509223923 68 228 1.7 6.1 0.00 0.34 0.34 62 1001.6
20260509223419 69 153 0.9 6.1 0.00 0.34 0.34 61 1001.9
20260509222917 69 342 1.7 7.8 0.00 0.34 0.34 60 1001.6
20260509222406 69 82 0.9 6.1 0.00 0.34 0.34 61 1001.6
20260509221901 69 245 1.7 2.6 0.00 0.34 0.34 62 1001.4
20260509221359 69 142 2.6 7.0 0.00 0.34 0.34 61 1001.5
20260509220854 69 162 1.7 5.2 0.00 0.34 0.34 60 1001.6
20260509220345 70 332 2.6 6.1 0.00 0.34 0.34 60 1001.7
20260509215841 70 172 2.6 4.3 0.00 0.34 0.34 61 1001.6
20260509215338 69 276 0.0 5.2 0.00 0.34 0.34 61 1001.6
20260509214834 70 298 0.9 7.0 0.00 0.34 0.34 60 1001.5
20260509214331 70 123 1.7 2.6 0.00 0.34 0.34 59 1001.6
20260509213829 70 294 1.7 5.2 0.00 0.34 0.34 59 1001.5
20260509213324 70 146 0.9 7.8 0.00 0.34 0.34 60 1001.4
20260509212821 70 332 2.6 7.0 0.00 0.34 0.34 60 1001.7
20260509212319 69 354 2.6 2.6 0.00 0.34 0.34 59 1001.6
20260509211815 70 341 3.5 6.1 0.00 0.34 0.34 59 1001.7
20260509211311 70 271 0.9 5.2 0.00 0.34 0.34 60 1001.9
20260509210808 70 280 2.6 6.1 0.00 0.34 0.34 59 1001.7
20260509210305 70 350 1.7 7.8 0.00 0.34 0.34 59 1001.9
20260509205804 70 145 1.7 5.2 0.00 0.34 0.34 59 1001.8
20260509205254 69 228 1.7 2.6 0.00 0.34 0.34 60 1002.1
20260509204750 70 55 1.7 6.1 0.00 0.34 0.34 60 1002.5
20260509204247 70 294 0.9 4.3 0.00 0.34 0.34 60 1002.4
20260509203743 70 186 2.6 5.2 0.00 0.34 0.34 59 1002.3
20260509203241 69 144 1.7 5.2 0.00 0.34 0.34 59 1002.2
20260509202737 70 258 3.5 5.2 0.00 0.34 0.34 60 1002.5
20260509202233 69 305 0.9 2.6 0.00 0.34 0.34 62 1002.4
20260509201732 69 239 2.6 5.2 0.00 0.34 0.34 60 1002.5
20260509201229 70 314 2.6 4.3 0.00 0.34 0.34 60 1002.7
20260509200726 70 255 0.9 4.3 0.00 0.34 0.34 63 1002.7
20260509200221 69 134 1.7 2.6 0.00 0.34 0.34 63 1002.6
20260509195717 70 62 1.7 2.6 0.00 0.34 0.34 62 1002.5
20260509195212 69 110 0.9 2.6 0.00 0.34 0.34 64 1002.8
20260509194707 67 196 0.9 2.6 0.00 0.34 0.34 65 1002.7
20260509194204 68 216 3.5 6.1 0.00 0.34 0.34 63 1002.8
20260509193701 68 127 4.3 6.1 0.00 0.34 0.34 63 1002.9
20260509193156 69 6 0.9 1.7 0.00 0.34 0.34 63 1002.9
20260509192652 68 241 3.5 7.0 0.00 0.34 0.34 65 1002.9
20260509192147 68 206 0.9 5.2 0.00 0.34 0.34 66 1003.2
20260509191642 68 136 2.6 6.1 0.00 0.34 0.34 67 1003.0
20260509191138 68 306 0.9 4.3 0.00 0.34 0.34 66 1003.2
20260509190634 68 336 1.7 7.0 0.00 0.34 0.34 65 1003.4
20260509190127 67 323 0.9 4.3 0.00 0.34 0.34 68 1003.4
20260509185624 67 195 0.9 4.3 0.00 0.34 0.34 67 1003.4
20260509185119 67 145 1.7 2.6 0.00 0.34 0.34 67 1003.2
20260509184612 68 19 3.5 5.2 0.00 0.34 0.34 67 1003.3
20260509184108 68 93 1.7 7.0 0.00 0.34 0.34 67 1003.3
20260509183603 67 324 1.7 2.6 0.00 0.34 0.34 68 1003.2
20260509183059 68 152 0.9 5.2 0.00 0.34 0.34 67 1003.3
20260509182556 67 93 3.5 6.1 0.00 0.34 0.34 67 1003.3
20260509182053 68 184 2.6 6.1 0.00 0.34 0.34 67 1003.6
20260509181551 67 34 0.9 4.3 0.00 0.34 0.34 66 1003.4
20260509181048 68 47 0.9 5.2 0.00 0.34 0.34 65 1003.6
20260509180543 67 38 1.7 7.0 0.00 0.34 0.34 67 1003.5
20260509180042 68 299 1.7 7.8 0.00 0.34 0.34 68 1003.3
20260509175537 67 317 2.6 4.3 0.00 0.34 0.34 67 1003.5
20260509175034 67 31 1.7 7.0 0.00 0.34 0.34 68 1003.5
20260509174530 67 258 1.7 6.1 0.00 0.34 0.34 67 1003.5
20260509174026 67 60 0.9 2.6 0.00 0.34 0.34 68 1003.6
20260509173520 66 66 1.7 7.0 0.00 0.34 0.34 71 1003.7
20260509173017 66 162 2.6 2.6 0.00 0.34 0.34 69 1003.6
20260509172514 66 244 1.7 4.3 0.00 0.34 0.34 71 1003.5
20260509172009 66 95 2.6 5.2 0.00 0.34 0.34 71 1003.5
20260509171506 66 205 0.9 1.7 0.00 0.34 0.34 74 1003.4
20260509171002 65 89 1.7 4.3 0.00 0.34 0.34 71 1003.7
20260509170458 65 278 0.0 4.3 0.00 0.34 0.34 72 1003.5
20260509165953 64 3 1.7 2.6 0.00 0.34 0.34 73 1003.4
20260509165452 64 350 1.7 2.6 0.00 0.34 0.34 74 1003.8
20260509164949 64 93 0.0 8.7 0.00 0.34 0.34 75 1004.0
20260509164444 64 289 1.7 5.2 0.00 0.34 0.34 71 1003.8
20260509163940 65 136 0.9 2.6 0.00 0.34 0.34 72 1004.0
20260509163438 64 293 0.0 4.3 0.00 0.34 0.34 74 1003.9
20260509162937 64 127 3.5 5.2 0.00 0.34 0.34 75 1004.0
20260509162436 63 265 0.9 2.6 0.00 0.34 0.34 76 1003.9
20260509161932 64 93 1.7 2.6 0.00 0.34 0.34 74 1003.8
20260509161429 64 266 1.7 4.3 0.00 0.34 0.34 75 1003.7
20260509160924 62 317 0.9 5.2 0.00 0.34 0.34 79 1003.8
20260509160420 64 33 1.7 2.6 0.00 0.34 0.34 77 1003.9
20260509155915 63 259 0.0 2.6 0.00 0.34 0.34 79 1003.7
20260509155412 63 225 0.9 2.6 0.00 0.34 0.34 82 1003.8
20260509154908 61 21 0.9 2.6 0.00 0.34 0.34 82 1003.9
20260509154405 61 330 0.9 1.7 0.00 0.34 0.34 82 1003.8
20260509153901 62 260 1.7 4.3 0.00 0.34 0.34 82 1003.9
20260509153359 60 179 0.9 1.7 0.00 0.34 0.34 86 1004.1
20260509152856 60 103 1.7 2.6 0.00 0.34 0.34 87 1004.1
20260509152352 58 245 0.9 5.2 0.00 0.34 0.34 88 1004.0
20260509151849 59 258 0.9 4.3 0.00 0.34 0.34 89 1004.0
20260509151345 58 240 0.0 2.6 0.00 0.34 0.34 90 1004.1
20260509150843 58 252 2.6 4.3 0.00 0.34 0.34 91 1004.0
20260509150341 57 341 0.0 1.7 0.00 0.34 0.34 92 1003.9
20260509145838 57 312 0.9 1.7 0.00 0.34 0.34 92 1003.9
20260509145332 57 269 0.9 2.6 0.00 0.34 0.34 92 1003.9
20260509144830 57 284 0.9 1.7 0.00 0.34 0.34 93 1004.0
20260509144326 56 291 0.9 6.1 0.00 0.34 0.34 95 1003.6
20260509143823 56 17 0.9 5.2 0.00 0.34 0.34 97 1003.7
20260509143321 56 135 0.9 1.7 0.00 0.34 0.34 99 1003.7
20260509142817 55 320 1.7 2.6 0.00 0.34 0.34 99 1003.7
20260509142313 55 219 1.7 2.6 0.00 0.34 0.34 99 1003.8
20260509141809 54 286 0.9 5.2 0.00 0.34 0.34 99 1003.8
20260509141306 54 111 0.9 1.7 0.00 0.34 0.34 99 1003.9
20260509140802 54 311 0.9 0.9 0.00 0.34 0.34 99 1003.7
20260509140259 54 245 0.9 4.3 0.00 0.34 0.34 99 1003.7
20260509135758 53 350 0.9 4.3 0.00 0.34 0.34 99 1003.7
20260509135255 53 204 0.9 1.7 0.00 0.34 0.34 99 1003.9
20260509134752 54 341 2.6 2.6 0.00 0.34 0.34 99 1003.9
20260509134249 54 290 0.0 1.7 0.00 0.34 0.34 99 1003.4
20260509133746 54 140 4.3 8.7 0.00 0.34 0.34 99 1003.8
20260509133243 54 86 0.9 0.9 0.00 0.34 0.34 99 1003.9
20260509132742 54 115 0.9 2.6 0.00 0.34 0.34 99 1003.9
20260509132240 54 189 1.7 2.6 0.00 0.34 0.34 99 1004.0
20260509131736 54 290 0.0 1.7 0.00 0.34 0.34 99 1003.8
20260509131232 53 293 0.0 1.7 0.00 0.34 0.34 99 1004.1
20260509130729 52 236 0.0 0.9 0.00 0.34 0.34 99 1004.0
20260509130225 52 285 0.9 0.9 0.00 0.34 0.34 99 1004.1
20260509125721 53 275 0.0 0.9 0.00 0.34 0.34 99 1004.1
20260509125219 53 273 0.0 0.9 0.00 0.34 0.34 99 1004.0
20260509124715 53 277 0.0 0.9 0.00 0.34 0.34 99 1004.0
20260509124212 52 252 0.9 0.9 0.00 0.34 0.34 99 1004.2
20260509123710 52 230 0.0 0.9 0.00 0.34 0.34 99 1004.1
20260509123207 53 248 0.0 0.0 0.00 0.34 0.34 99 1004.3
20260509122702 52 233 1.7 2.6 0.00 0.34 0.34 99 1004.3
20260509122159 52 290 0.9 1.7 0.00 0.34 0.34 99 1004.2
20260509121656 52 281 0.0 0.0 0.00 0.34 0.34 99 1004.2
20260509121154 52 225 0.9 1.7 0.00 0.34 0.34 99 1004.1
20260509120652 52 275 0.0 1.7 0.00 0.34 0.34 99 1004.0
20260509120149 52 277 0.0 0.0 0.00 0.34 0.34 99 1004.3
20260509115647 52 312 0.0 0.0 0.00 0.34 0.34 99 1004.3
20260509115144 52 279 0.0 0.9 0.00 0.34 0.34 99 1004.0
20260509114642 52 276 0.0 1.7 0.00 0.34 0.34 99 1004.2
20260509114141 52 133 1.7 1.7 0.00 0.34 0.34 99 1004.2
20260509113639 51 256 0.9 0.9 0.00 0.34 0.34 99 1004.1
20260509113136 51 277 0.0 0.9 0.00 0.34 0.34 99 1003.9
20260509112632 51 249 0.0 1.7 0.00 0.34 0.34 99 1004.1
20260509112130 51 251 0.0 0.9 0.00 0.34 0.34 99 1004.1
20260509111626 51 342 0.0 0.9 0.00 0.34 0.34 99 1004.1
20260509111123 51 193 0.9 1.7 0.00 0.34 0.34 99 1004.0
20260509110620 51 281 0.0 1.7 0.00 0.34 0.34 99 1004.0
20260509110117 51 274 0.0 0.9 0.00 0.34 0.34 99 1003.7
20260509105616 51 277 0.0 2.6 0.00 0.34 0.34 99 1004.0
20260509105113 51 298 0.9 0.9 0.00 0.34 0.34 99 1004.0